[[{"header":{"parameterUnit":"m.s-1","parameterCategory":1,"la1":30.2991,"la2":30.254,"lo1":-89.0895,"lo2":-89.0444,"dy":0.0017,"dx":0.0017,"nx":28,"ny":28,"refTime":"2024-07-14T03:00:00:Z","depth":0,"parameterNumber":2,"parameterNumberName":"U-component_of_WINDS"},"data":[0,0,0,0,0,0,0,0,0,0,0,0,0,0,0,0,0,0,0,0,0,0,0,0,0,0,0,0,0,0,0,0,0,0,0,0,0,0,0,0,0,0,0,0,0,0,0,0,0,0,0,0,0,0,0,0,0,0,0.9515,0.9516,0,0.9678,0.968,0.9682,0.9708,0.9707,0.9705,0.9704,0.9878,0.9883,0.9889,0,0,0,0,0,0,0,0,0,0,0,0,0,0.9229,0.9234,0.9514,0.9516,0.9518,0.9678,0.968,0.9682,0.9708,0.9707,0.9705,0.9703,0.9876,0.9883,0.989,0,0,0,0,0,0,0,0,0,0,0,0,0,0.9369,0.9236,0.9514,0.9551,0.9555,0.9677,0.968,0.9683,0.9709,0.9707,0.9704,0.9702,0.9873,0.9882,0.9891,0.999,0,0,0.9918,0.9922,0,0,0,0,0,0,0,0,0.9361,0.938,0.9543,0.9548,0.9554,0.967,0.9643,0.9786,0.9709,0.9651,0.9704,0.9701,0.9811,0.9825,0.986,0.9998,1.0005,0.9919,0.9924,0.9928,0.9931,0,0,0,0,0,0,0,0.9352,0.9373,0.9579,0.9545,0.9552,0.956,0.9578,0.967,0.9741,0.9656,0.9658,0.9677,0.9813,0.9852,0.9865,1.0008,0.9919,0.9927,0.9932,0.9936,1.0233,1.0236,0,0,0,0,0,0,0.9334,0.9365,0.9574,0.9584,0.945,0.9567,0.9587,0.9635,0.974,0.9754,0.9678,0.9677,0.9837,0.9854,0.9871,0.9992,0.9928,0.9937,0.9942,1.0231,1.0234,1.0237,0,0,0,0,0,0,0.9328,0.9353,0.9568,0.9475,0.9503,0.9574,0.9629,0.964,0.9678,0.9757,0.977,0.9704,0.9836,0.9858,0.9959,0.9999,0.9941,0.9949,1.0228,1.0232,1.0235,1.0237,0,0,0,0,0,0,0.932,0.935,0.9388,0.9476,0.9508,0.9652,0.9631,0.9644,0.9693,0.9693,0.9785,0.9798,0.9836,0.9946,0.9968,1.001,0.9956,1.0225,1.023,1.0234,1.0233,1.024,1.0246,0,0,0,0,0,0.931,0.9383,0.9389,0.9415,0.9555,0.9654,0.9672,0.9713,0.9696,0.9734,0.9785,0.9795,0.9991,0.9956,0.9981,1.0027,1.0222,1.0228,1.0234,1.0231,1.0239,1.0246,0,0,0,0,0,0,0.93,0.9395,0.9403,0.9507,0.9572,0.9658,0.9708,0.972,0.9793,0.979,0.984,0.986,0.9959,1.0003,0.9962,1.0127,1.0105,1.0116,1.0094,1.0103,1.0109,1.0096,0.9963,0,0,0,0,0,0.931,0.938,0.946,0.9544,0.9576,0.9636,0.9681,0.9706,0.9776,0.9804,0.9862,0.9931,1.0008,1.0058,1.0134,1.024,1.026,1.0284,1.029,1.0295,1.0304,1.0362,1.0373,1.0255,1.0255,1.0255,0,0,0.9331,0.9392,0.9434,0.9544,0.9597,0.967,0.9659,0.9737,0.9792,0.9817,0.9914,0.996,1.004,1.0144,1.0192,1.0184,1.0341,1.0302,1.0305,1.0312,1.0369,1.038,1.039,1.0259,1.0258,1.0258,0,0,0.9407,0.946,0.9535,0.9588,0.9668,0.9707,0.9725,0.9809,0.9839,0.9938,0.9957,1.0024,1.0156,1.0212,1.0258,1.0353,1.0365,1.0377,1.0409,1.0466,1.0475,1.0483,1.0517,1.0528,1.0385,1.0385,1.0385,0,0.9424,0.9533,0.9573,0.9649,0.9697,0.972,0.9797,0.9847,0.9948,0.9981,0.997,1.0134,1.019,1.0307,1.0329,1.0366,1.0389,1.0366,1.047,1.0479,1.0487,1.052,1.0532,1.0386,1.0386,1.0386,1.0386,0,0.9549,0.9625,0.9676,0.977,0.9824,0.99,0.9953,1.0003,1.0023,1.0064,1.0164,1.0232,1.032,1.035,1.0372,1.047,1.0462,1.046,1.0439,1.0499,1.053,1.0543,1.0387,1.0387,1.0387,1.0387,0,0,0.9624,0.9738,0.9756,0.9799,0.9888,0.9948,1.0026,1.011,1.0152,1.0221,1.0287,1.0397,1.0395,1.0447,1.0475,1.0525,1.0595,1.0517,1.052,1.0528,1.0706,1.0707,1.072,1.0604,1.0606,1.0608,1.0699,0,0.971,0.9847,0.9884,1.0001,1.0071,1.0094,1.0161,1.0224,1.0264,1.033,1.0376,1.0452,1.0444,1.0475,1.0526,1.0576,1.0632,1.057,1.0667,1.067,1.0645,1.0737,1.0738,1.0821,1.0712,1.0714,1.0716,0,0.9828,0.9897,1.0019,1.0098,1.0129,1.0189,1.0269,1.0332,1.0403,1.0429,1.0486,1.051,1.0592,1.0567,1.0682,1.0639,1.0681,1.0712,1.0716,1.0726,1.0696,1.0749,1.0848,1.086,1.0735,1.0734,1.0732,0,0.9869,0.9992,1.0081,1.0117,1.0212,1.0253,1.0295,1.0365,1.0413,1.0483,1.0515,1.0595,1.0639,1.0701,1.0746,1.0723,1.0857,1.0835,1.0881,1.088,1.0908,1.0905,1.1014,1.0936,1.0936,1.0935,1.0935,0,0.996,1.0034,1.0101,1.0155,1.0239,1.0282,1.0364,1.0407,1.0469,1.0533,1.0559,1.0619,1.0675,1.0743,1.0779,1.0868,1.0888,1.0912,1.092,1.0909,1.0906,1.0937,1.0932,1.0939,1.0938,1.0937,1.0937,0,1.002,1.0068,1.0166,1.0247,1.0269,1.0327,1.0397,1.0451,1.0492,1.0573,1.0594,1.0659,1.074,1.079,1.0895,1.0919,1.1016,1.1024,1.0991,1.0995,1.1038,1.1032,1.117,1.119,1.1098,1.1099,1.11,0,1.0075,1.0132,1.0218,1.0262,1.0303,1.0374,1.0422,1.0468,1.0517,1.0602,1.0647,1.0729,1.0797,1.0925,1.0982,1.1062,1.1071,1.1113,1.1083,1.1069,1.107,1.1066,1.1072,1.1118,1.1119,1.1119,1.112,0,1.0166,1.0187,1.0254,1.0331,1.0387,1.045,1.0512,1.0547,1.0603,1.0658,1.074,1.0792,1.0897,1.0978,1.1062,1.1107,1.1123,1.1129,1.1144,1.1132,1.1111,1.1122,1.1004,1.1126,1.1125,1.1125,1.1124,1.1124,1.0225,1.0276,1.0344,1.0419,1.047,1.0528,1.0582,1.0629,1.0698,1.0785,1.0808,1.0893,1.0963,1.1077,1.1124,1.1192,1.1186,1.1208,1.1213,1.1218,1.1217,1.11,1.1208,1.1208,1.1208,1.1208,1.1208,0,1.0317,1.0361,1.043,1.0515,1.0574,1.0582,1.0652,1.0701,1.0775,1.0838,1.0904,1.0998,1.1076,1.1139,1.122,1.1263,1.1272,1.1282,1.1279,1.1289,1.1219,1.1197,1.1273,1.1273,1.1273,1.1273,1.1273,1.1273,1.0371,1.0458,1.0486,1.0599,1.0644,1.0726,1.0765,1.0819,1.0869,1.0972,1.1037,1.1076,1.1139,1.1225,1.1298,1.1314,1.1343,1.1351,1.1369,1.1302,1.1295,1.1288,1.1268,1.1357,1.1357,1.1434,1.1435,1.1435]},{"header":{"parameterUnit":"m.s-1","parameterCategory":1,"la1":30.2991,"la2":30.254,"lo1":-89.0895,"lo2":-89.0444,"dy":0.0017,"dx":0.0017,"nx":28,"ny":28,"refTime":"2024-07-14T03:00:00:Z","depth":0,"parameterNumber":3,"parameterNumberName":"V-component_of_WINDS"},"data":[0,0,0,0,0,0,0,0,0,0,0,0,0,0,0,0,0,0,0,0,0,0,0,0,0,0,0,0,0,0,0,0,0,0,0,0,0,0,0,0,0,0,0,0,0,0,0,0,0,0,0,0,0,0,0,0,0,0,3.857,3.857,0,3.8549,3.8549,3.8549,3.8537,3.8537,3.8537,3.8537,3.8513,3.8513,3.8512,0,0,0,0,0,0,0,0,0,0,0,0,0,3.8597,3.8597,3.857,3.857,3.8569,3.8549,3.8549,3.8549,3.8537,3.8537,3.8537,3.8537,3.8513,3.8513,3.8512,0,0,0,0,0,0,0,0,0,0,0,0,0,3.8582,3.8596,3.857,3.8561,3.856,3.8549,3.8549,3.8549,3.8537,3.8537,3.8537,3.8537,3.8514,3.8513,3.8512,3.8507,0,0,3.8509,3.8509,0,0,0,0,0,0,0,0,3.8582,3.8581,3.8563,3.8562,3.8561,3.8546,3.855,3.8535,3.8537,3.8546,3.8537,3.8537,3.8524,3.8522,3.8518,3.8506,3.8505,3.8509,3.8508,3.8508,3.8508,0,0,0,0,0,0,0,3.8584,3.8581,3.8562,3.8563,3.8561,3.8558,3.8555,3.8547,3.8535,3.8545,3.8544,3.8542,3.8523,3.8519,3.8518,3.8505,3.8509,3.8508,3.8508,3.8507,3.8486,3.8486,0,0,0,0,0,0,3.8586,3.8582,3.8562,3.8561,3.8572,3.8557,3.8555,3.8551,3.8535,3.8533,3.8542,3.8542,3.8521,3.8519,3.8517,3.851,3.8508,3.8507,3.8507,3.8486,3.8486,3.8486,0,0,0,0,0,0,3.8587,3.8585,3.8563,3.8571,3.8568,3.8557,3.8552,3.855,3.8546,3.8533,3.8531,3.854,3.8521,3.8518,3.851,3.8509,3.8507,3.8506,3.8486,3.8486,3.8486,3.8496,0,0,0,0,0,0,3.8588,3.8585,3.8584,3.8572,3.8568,3.8557,3.8552,3.855,3.8545,3.8544,3.8531,3.8528,3.852,3.8511,3.8509,3.8507,3.8505,3.8486,3.8486,3.8486,3.8495,3.8496,3.8497,0,0,0,0,0,3.8589,3.8587,3.8584,3.8581,3.8566,3.8557,3.8555,3.8547,3.8545,3.8543,3.8535,3.8529,3.8509,3.851,3.8507,3.8506,3.8486,3.8486,3.8486,3.8495,3.8496,3.8497,0,0,0,0,0,0,3.8598,3.8585,3.8581,3.8576,3.8568,3.8555,3.8553,3.8548,3.854,3.8539,3.8528,3.8525,3.8517,3.8511,3.8512,3.85,3.8497,3.8496,3.8505,3.8505,3.8506,3.8508,3.8504,0,0,0,0,0,3.86,3.8595,3.8583,3.8579,3.8575,3.8565,3.856,3.8554,3.8545,3.8542,3.8533,3.8524,3.8515,3.851,3.8501,3.8494,3.8491,3.8492,3.8492,3.8493,3.8492,3.8487,3.8488,3.8486,3.8486,3.8486,0,0,3.8603,3.8595,3.8592,3.858,3.8574,3.8567,3.8562,3.8555,3.855,3.8541,3.8532,3.8525,3.8514,3.8506,3.8502,3.85,3.8492,3.8493,3.8493,3.8493,3.8487,3.8488,3.8488,3.8486,3.8486,3.8486,0,0,3.8605,3.8599,3.8595,3.8588,3.8578,3.8571,3.857,3.8558,3.8553,3.8545,3.8537,3.853,3.8517,3.8509,3.8503,3.8502,3.8496,3.8499,3.8502,3.8497,3.8497,3.8497,3.8496,3.8496,3.8499,3.8499,3.8499,0,3.861,3.8601,3.8593,3.8587,3.8582,3.8573,3.8568,3.8562,3.8549,3.8545,3.8544,3.8526,3.8518,3.8507,3.8507,3.8503,3.8501,3.8501,3.8498,3.8498,3.8498,3.8497,3.8497,3.8499,3.8499,3.8499,3.8499,0,3.8607,3.8601,3.8598,3.8587,3.8582,3.8576,3.8566,3.8562,3.8556,3.8549,3.854,3.853,3.8519,3.8516,3.8511,3.8505,3.8504,3.85,3.8497,3.8499,3.8497,3.8497,3.85,3.85,3.85,3.8499,0,0,3.8615,3.8599,3.8598,3.8593,3.8581,3.8576,3.8569,3.856,3.8556,3.8547,3.8541,3.8529,3.8525,3.8519,3.8512,3.8508,3.8507,3.8505,3.8504,3.8505,3.8499,3.8502,3.8502,3.8503,3.8503,3.8503,3.85,0,3.8615,3.8604,3.8597,3.8589,3.8582,3.8574,3.8568,3.856,3.8553,3.8546,3.8538,3.853,3.8526,3.8522,3.8517,3.8508,3.8505,3.8508,3.8496,3.8496,3.8499,3.8501,3.8504,3.8502,3.85,3.8499,3.8499,0,3.8614,3.8606,3.8598,3.8586,3.8584,3.8579,3.8569,3.8563,3.8552,3.8548,3.854,3.8533,3.8525,3.8523,3.8511,3.8513,3.8507,3.8502,3.8502,3.85,3.8498,3.8499,3.8501,3.8501,3.8499,3.8499,3.8499,0,3.862,3.8607,3.8601,3.8597,3.8583,3.858,3.8574,3.8564,3.8558,3.8549,3.8545,3.8535,3.8529,3.8521,3.8511,3.8511,3.85,3.8497,3.8495,3.8495,3.8493,3.8493,3.8494,3.849,3.849,3.849,3.849,0,3.8621,3.8616,3.8603,3.8599,3.8593,3.8584,3.8578,3.8571,3.8562,3.8556,3.8547,3.8541,3.8529,3.8521,3.8513,3.8504,3.8501,3.8496,3.8494,3.8497,3.8498,3.8493,3.8493,3.849,3.849,3.849,3.849,0,3.8626,3.8618,3.861,3.8598,3.8595,3.8591,3.858,3.8575,3.8568,3.856,3.8557,3.8545,3.8535,3.8525,3.8511,3.8506,3.8497,3.8494,3.8501,3.8499,3.8498,3.8498,3.8496,3.8495,3.8492,3.8492,3.8492,0,3.8627,3.8624,3.8611,3.8607,3.8602,3.8594,3.8589,3.8579,3.8574,3.8562,3.8558,3.8548,3.8539,3.8523,3.8513,3.8502,3.8499,3.8498,3.8497,3.85,3.8498,3.8498,3.8498,3.8499,3.8499,3.8499,3.8499,0,3.863,3.8626,3.8619,3.861,3.8604,3.8597,3.8589,3.8585,3.8574,3.8567,3.8558,3.8551,3.8538,3.8527,3.8515,3.8508,3.8501,3.85,3.8499,3.8501,3.8505,3.8503,3.8502,3.85,3.85,3.85,3.85,3.85,3.8633,3.8629,3.862,3.8612,3.8605,3.8598,3.8593,3.8585,3.8577,3.8566,3.856,3.8551,3.8539,3.8523,3.8515,3.8507,3.8505,3.8503,3.8503,3.8503,3.8503,3.8507,3.8505,3.8505,3.8504,3.8504,3.8504,0,3.8635,3.8629,3.8622,3.8611,3.8605,3.86,3.8591,3.8586,3.8578,3.8568,3.856,3.8549,3.8538,3.8527,3.8516,3.8511,3.8507,3.8508,3.8508,3.8506,3.8506,3.8508,3.8511,3.8511,3.8511,3.8511,3.8511,3.8511,3.8635,3.8628,3.8623,3.8612,3.8606,3.8597,3.8592,3.8585,3.8577,3.8565,3.8557,3.855,3.854,3.8527,3.8517,3.8514,3.851,3.8512,3.8507,3.8507,3.8506,3.8506,3.8508,3.8511,3.8511,3.8508,3.8508,3.8508]}]]